Back to catalog

STARLINK-33664

AliveCommunicationsVLEO
NORAD 63415·PAYLOAD·🇺🇸 United States

Launched Mar 31, 2025 from Cape Canaveral Space Force Station

Loading…

Next Passes (next 24 hours)

TLE

FreshSource: CelesTrak SupGP

Epoch: Sep 14, 2026, 22:54 UTC

1 63415C 25065S   26257.95465278 -.00010022  00000+0 -36311-3 0  2575
2 63415  43.0023 118.1570 0001330 273.7525 160.0203 15.27571693    13

Track STARLINK-33664 in real time with AllMySat

Download on the App Store